LAGEOS 1

Last updated on Sat Sep 05 2026 00:03:39 GMT+0000 (Coordinated Universal Time)

1 08820U 76039A 26247.37958772 .00000012 00000+0 00000+0 0 9993 2 08820 109.8145 206.4358 0044624 285.2935 234.5579 6.38664774918194
UTC large
Height (km)
Speed (km/s)
/
Latitude / Longitude
Inclination (degrees)
Orbital Period (minutes)
Azimuth
Elevation
Range (km)
Doppler Factor

Next 0 passes for location: London (51.5072 / 0.1276)

No passes found over London.
LAGEOS 1